カタログに戻る

HULIANWANG DIGUI-35

運用中通信PO
NORAD 64956·PAYLOAD·🇨🇳 China

打ち上げ Jul 27, 2025 から Taiyuan Satellite Launch Center

Loading…

次のパス (今後24時間)

TLE

最新Source: Space-Track

元期: Sep 14, 2026, 22:14 UTC

1 64956U 25159A   26257.92707518 -.00000068  00000-0 -19302-3 0  9997
2 64956  86.4894 252.0984 0001776 202.9759 157.1296 13.24407733 55001

AllMySatでHULIANWANG DIGUI-35をリアルタイム追跡

Download on the App Store